| time (UTC) | temp F | wind direction | speed MPH | gust MPH | rain 1hr in | rain 24hr in | rain mn in | humidity % | barometer mb |
| 20260508081538 | 51 | 235 | 5.0 | 11.0 | 0.00 | 0.01 | 0.00 | 68 | 1016.0 |
| 20260508080032 | 51 | 257 | 4.0 | 8.0 | 0.00 | 0.01 | 0.00 | 68 | 1016.2 |
| 20260508074531 | 51 | 280 | 6.0 | 12.0 | 0.00 | 0.01 | 0.00 | 68 | 1016.3 |
| 20260508073038 | 51 | 287 | 6.0 | 9.0 | 0.00 | 0.01 | 0.00 | 66 | 1016.1 |
| 20260508071535 | 52 | 245 | 6.0 | 12.0 | 0.00 | 0.01 | 0.00 | 63 | 1015.9 |
| 20260508070048 | 51 | 280 | 4.0 | 13.0 | 0.00 | 0.01 | 0.00 | 64 | 1016.0 |
| 20260508064535 | 52 | 266 | 5.0 | 9.0 | 0.00 | 0.01 | 0.00 | 61 | 1016.0 |
| 20260508063031 | 53 | 259 | 6.0 | 14.0 | 0.00 | 0.01 | 0.00 | 60 | 1015.8 |
| 20260508061534 | 53 | 245 | 9.0 | 13.0 | 0.00 | 0.01 | 0.00 | 59 | 1015.8 |
| 20260508060035 | 54 | 252 | 6.0 | 12.0 | 0.00 | 0.01 | 0.00 | 54 | 1016.0 |
| 20260508054541 | 54 | 250 | 7.0 | 11.0 | 0.00 | 0.01 | 0.01 | 53 | 1016.2 |
| 20260508053029 | 53 | 263 | 6.0 | 10.0 | 0.00 | 0.01 | 0.01 | 54 | 1016.0 |
| 20260508051529 | 54 | 271 | 2.0 | 4.0 | 0.00 | 0.01 | 0.01 | 56 | 1015.9 |
| 20260508050032 | 53 | 293 | 9.0 | 13.0 | 0.00 | 0.01 | 0.01 | 58 | 1016.0 |
| 20260508044533 | 55 | 217 | 3.0 | 10.0 | 0.00 | 0.01 | 0.01 | 59 | 1015.5 |
| 20260508043031 | 53 | 175 | 3.0 | 6.0 | 0.00 | 0.01 | 0.01 | 62 | 1015.4 |
| 20260508041531 | 52 | 149 | 2.0 | 6.0 | 0.00 | 0.01 | 0.01 | 64 | 1015.4 |
| 20260508040035 | 52 | 0 | 1.0 | 7.0 | 0.00 | 0.01 | 0.01 | 65 | 1015.5 |
| 20260508034535 | 54 | 0 | 1.0 | 3.0 | 0.00 | 0.01 | 0.01 | 64 | 1015.6 |
| 20260508033029 | 54 | 355 | 1.0 | 7.0 | 0.00 | 0.01 | 0.01 | 64 | 1015.7 |
| 20260508031534 | 55 | 11 | 1.0 | 5.0 | 0.00 | 0.01 | 0.01 | 62 | 1015.5 |
| 20260508030033 | 56 | 119 | 3.0 | 6.0 | 0.00 | 0.01 | 0.01 | 61 | 1015.2 |
| 20260508024536 | 57 | 136 | 3.0 | 5.0 | 0.00 | 0.01 | 0.01 | 57 | 1014.9 |
| 20260508023037 | 61 | 138 | 6.0 | 8.0 | 0.00 | 0.01 | 0.01 | 51 | 1014.6 |
| 20260508021531 | 63 | 0 | 0.0 | 7.0 | 0.00 | 0.01 | 0.01 | 46 | 1014.6 |
| 20260508020029 | 63 | 80 | 4.0 | 8.0 | 0.00 | 0.01 | 0.01 | 47 | 1014.4 |
| 20260508014530 | 63 | 63 | 3.0 | 8.0 | 0.00 | 0.01 | 0.01 | 48 | 1014.3 |
| 20260508013031 | 63 | 34 | 5.0 | 9.0 | 0.00 | 0.01 | 0.01 | 45 | 1014.2 |
| 20260508011538 | 64 | 44 | 7.0 | 12.0 | 0.00 | 0.01 | 0.01 | 44 | 1014.0 |
| 20260508010031 | 65 | 341 | 8.0 | 15.0 | 0.00 | 0.01 | 0.01 | 43 | 1014.0 |
| 20260508004534 | 65 | 12 | 11.0 | 15.0 | 0.00 | 0.01 | 0.01 | 44 | 1014.0 |
| 20260508003034 | 65 | 31 | 10.0 | 17.0 | 0.00 | 0.01 | 0.01 | 44 | 1014.0 |
| 20260508001544 | 66 | 25 | 13.0 | 20.0 | 0.00 | 0.01 | 0.01 | 41 | 1014.1 |
| 20260508000031 | 67 | 350 | 13.0 | 23.0 | 0.00 | 0.01 | 0.01 | 40 | 1013.8 |
| 20260507234530 | 67 | 321 | 13.0 | 23.0 | 0.00 | 0.01 | 0.01 | 42 | 1014.0 |
| 20260507233035 | 67 | 267 | 8.0 | 17.0 | 0.00 | 0.01 | 0.01 | 42 | 1013.5 |
| 20260507231532 | 67 | 246 | 9.0 | 16.0 | 0.00 | 0.01 | 0.01 | 42 | 1013.6 |
| 20260507230035 | 67 | 263 | 9.0 | 13.0 | 0.00 | 0.01 | 0.01 | 40 | 1013.8 |
| 20260507224535 | 68 | 271 | 8.0 | 15.0 | 0.00 | 0.01 | 0.01 | 39 | 1013.7 |
| 20260507223031 | 69 | 277 | 5.0 | 14.0 | 0.00 | 0.01 | 0.01 | 38 | 1013.7 |
| 20260507221531 | 69 | 243 | 9.0 | 15.0 | 0.00 | 0.01 | 0.01 | 38 | 1013.9 |
| 20260507220031 | 67 | 284 | 6.0 | 16.0 | 0.00 | 0.01 | 0.01 | 41 | 1014.1 |
| 20260507214530 | 68 | 275 | 11.0 | 17.0 | 0.00 | 0.01 | 0.01 | 42 | 1014.6 |
| 20260507213036 | 68 | 281 | 12.0 | 19.0 | 0.00 | 0.01 | 0.01 | 42 | 1014.7 |
| 20260507211543 | 67 | 270 | 7.0 | 15.0 | 0.00 | 0.01 | 0.01 | 42 | 1014.9 |
| 20260507210035 | 67 | 284 | 11.0 | 15.0 | 0.00 | 0.01 | 0.01 | 40 | 1015.2 |
| 20260507204533 | 67 | 295 | 10.0 | 17.0 | 0.00 | 0.01 | 0.01 | 40 | 1015.2 |
| 20260507203032 | 67 | 266 | 12.0 | 20.0 | 0.00 | 0.01 | 0.01 | 40 | 1015.1 |
| 20260507201541 | 67 | 251 | 11.0 | 17.0 | 0.00 | 0.01 | 0.01 | 40 | 1015.2 |
| 20260507200041 | 65 | 236 | 10.0 | 14.0 | 0.00 | 0.01 | 0.01 | 42 | 1015.1 |
| 20260507194532 | 66 | 302 | 6.0 | 15.0 | 0.00 | 0.01 | 0.01 | 39 | 1015.1 |
| 20260507193039 | 65 | 248 | 3.0 | 12.0 | 0.00 | 0.01 | 0.01 | 40 | 1015.3 |
| 20260507191531 | 64 | 251 | 3.0 | 13.0 | 0.00 | 0.01 | 0.01 | 41 | 1015.3 |
| 20260507190033 | 64 | 0 | 1.0 | 11.0 | 0.00 | 0.01 | 0.01 | 42 | 1015.4 |
| 20260507184534 | 62 | 0 | 1.0 | 9.0 | 0.00 | 0.01 | 0.01 | 42 | 1015.6 |
| 20260507183033 | 62 | 236 | 5.0 | 12.0 | 0.00 | 0.01 | 0.01 | 42 | 1015.7 |
| 20260507181531 | 61 | 299 | 6.0 | 12.0 | 0.00 | 0.01 | 0.01 | 44 | 1015.7 |
| 20260507180044 | 62 | 285 | 6.0 | 12.0 | 0.00 | 0.01 | 0.01 | 43 | 1015.9 |
| 20260507174529 | 61 | 315 | 9.0 | 13.0 | 0.00 | 0.01 | 0.01 | 44 | 1016.0 |
| 20260507173041 | 61 | 292 | 12.0 | 16.0 | 0.00 | 0.01 | 0.01 | 45 | 1015.9 |
| 20260507171530 | 62 | 343 | 9.0 | 15.0 | 0.00 | 0.01 | 0.01 | 45 | 1015.8 |
| 20260507170044 | 62 | 304 | 9.0 | 13.0 | 0.00 | 0.01 | 0.01 | 46 | 1015.9 |
| 20260507164531 | 61 | 284 | 9.0 | 12.0 | 0.00 | 0.01 | 0.01 | 49 | 1015.7 |
| 20260507163031 | 61 | 300 | 8.0 | 13.0 | 0.00 | 0.01 | 0.01 | 50 | 1015.6 |
| 20260507161531 | 60 | 271 | 7.0 | 12.0 | 0.00 | 0.01 | 0.01 | 51 | 1015.7 |
| 20260507160030 | 61 | 323 | 9.0 | 15.0 | 0.00 | 0.01 | 0.01 | 54 | 1015.6 |
| 20260507154530 | 60 | 309 | 10.0 | 14.0 | 0.00 | 0.01 | 0.01 | 53 | 1015.6 |
| 20260507153031 | 60 | 328 | 8.0 | 12.0 | 0.00 | 0.01 | 0.01 | 56 | 1015.3 |
| 20260507151532 | 59 | 277 | 6.0 | 9.0 | 0.00 | 0.01 | 0.01 | 61 | 1015.3 |
| 20260507150029 | 58 | 298 | 4.0 | 9.0 | 0.00 | 0.01 | 0.01 | 65 | 1015.1 |
| 20260507144532 | 57 | 249 | 3.0 | 7.0 | 0.00 | 0.01 | 0.01 | 70 | 1015.1 |
| 20260507143030 | 55 | 229 | 5.0 | 9.0 | 0.00 | 0.01 | 0.01 | 73 | 1014.8 |
| 20260507141529 | 54 | 175 | 3.0 | 6.0 | 0.00 | 0.01 | 0.01 | 75 | 1014.6 |
| 20260507140035 | 52 | 198 | 4.0 | 7.0 | 0.01 | 0.01 | 0.01 | 75 | 1014.5 |
| 20260507134530 | 51 | 178 | 3.0 | 7.0 | 0.01 | 0.01 | 0.01 | 76 | 1014.4 |
| 20260507133059 | 51 | 297 | 1.0 | 4.0 | 0.01 | 0.01 | 0.01 | 76 | 1014.2 |
| 20260507131540 | 51 | 302 | 1.0 | 4.0 | 0.01 | 0.01 | 0.01 | 77 | 1014.2 |
| 20260507130035 | 51 | 0 | 0.0 | 0.0 | 0.00 | 0.00 | 0.00 | 73 | 1014.1 |
| 20260507124531 | 51 | 0 | 0.0 | 5.0 | 0.00 | 0.00 | 0.00 | 72 | 1014.1 |
| 20260507123032 | 52 | 342 | 2.0 | 5.0 | 0.00 | 0.00 | 0.00 | 71 | 1013.8 |
| 20260507121706 | 51 | 325 | 2.0 | 8.0 | 0.00 | 0.00 | 0.00 | 73 | 1013.6 |
| 20260507120030 | 52 | 338 | 3.0 | 8.0 | 0.00 | 0.00 | 0.00 | 73 | 1013.6 |
| 20260507114530 | 53 | 315 | 10.0 | 15.0 | 0.00 | 0.00 | 0.00 | 69 | 1013.7 |
| 20260507113029 | 55 | 352 | 2.0 | 7.0 | 0.00 | 0.00 | 0.00 | 63 | 1013.4 |
| 20260507111529 | 56 | 0 | 0.0 | 6.0 | 0.00 | 0.00 | 0.00 | 56 | 1013.0 |
| 20260507110107 | 57 | 288 | 6.0 | 12.0 | 0.00 | 0.00 | 0.00 | 54 | 1012.8 |
| 20260507104530 | 58 | 284 | 9.0 | 13.0 | 0.00 | 0.00 | 0.00 | 53 | 1012.7 |
| 20260507103040 | 57 | 277 | 8.0 | 11.0 | 0.00 | 0.00 | 0.00 | 54 | 1012.5 |
| 20260507101530 | 56 | 281 | 4.0 | 7.0 | 0.00 | 0.00 | 0.00 | 55 | 1012.4 |
| 20260507100031 | 56 | 263 | 3.0 | 9.0 | 0.00 | 0.00 | 0.00 | 55 | 1012.4 |
| 20260507094533 | 56 | 267 | 4.0 | 8.0 | 0.00 | 0.00 | 0.00 | 57 | 1012.5 |
| 20260507093032 | 57 | 289 | 4.0 | 7.0 | 0.00 | 0.00 | 0.00 | 53 | 1012.1 |
| 20260507091538 | 58 | 278 | 5.0 | 9.0 | 0.00 | 0.00 | 0.00 | 53 | 1011.7 |
| 20260507090035 | 58 | 300 | 6.0 | 12.0 | 0.00 | 0.00 | 0.00 | 52 | 1011.8 |
| 20260507084540 | 59 | 286 | 8.0 | 18.0 | 0.00 | 0.00 | 0.00 | 51 | 1011.5 |
| 20260507083028 | 56 | 325 | 13.0 | 23.0 | 0.00 | 0.00 | 0.00 | 56 | 1011.6 |